ESTAESMS

Guest
Details From ESTA - Angelholm
To ESMS - Malmo Sturup
Flight Number -
Tags generated
Created
Modified
Stats Distance 49 nm / 91 km
Max Altitude 3,800 ft / 1,158 m
Waypoints 3
Social Downloads 3
Likes 0
Share VATSIM

Download

Looking for another format? Having issues loading an existing format? Contact us
Advertisement - Login to hide

Notes

Basic altitude profile: - Ascent Rate: 2500ft/min - Ascent Speed: 250kts - Cruise Altitude: 35000ft - Cruise Speed: 420kts - Descent Rate: 1500ft/min - Descent Speed: 250kts Options: - Use NATs: yes - Use PACOTS: yes - Use low airways: yes - Use high airways: yes

Route

ESTA ASTOS ESMS

ID Type Via Altitude Latitude Longitude Leg Dist Tot Dist Heading (true) Name
O ESTA APT - 0 ft / 0 m 56.29149˚ 12.85498˚ - 0 nm - Angelholm
ASTOS FIX - 3,800 ft / 1,158 m 56.12047˚ 12.96125˚ 10 nm 10 nm 161° / 161° -
O ESMS APT - 0 ft / 0 m 55.52888˚ 13.37111˚ 38 nm 48 nm 159° / 159° Malmo Sturup

Altitude Profile

Advertisement - Login to hide

ESTA

Details ICAO ESTA (AGH)
Name Angelholm
Region Sweden
Timezone Europe/Stockholm (UTC+2.0)
Stats Elevation 68 ft / 21 m (AMSL)
Location 56.291492° 12.854977°
Runways 1
Magnetic Variation 3.903° E

METAR

ESTA 211520Z 11011KT CAVOK 20/03 Q1024

Decode

TAF

Not found

Departure Runways

ID Width Length Bearing (true) Bearing (mag) Surface Threshold Offset Overrun Length
14 148 ft / 45 m 6,339 ft / 1,932 m 136.36° 132.46° Asphalt 0 ft / 0 m 0 ft / 0 m
32 148 ft / 45 m 6,339 ft / 1,932 m 316.38° 312.48° Asphalt 0 ft / 0 m 0 ft / 0 m

ESMS

Details ICAO ESMS (MMX)
Name Malmo Sturup
Region Sweden
Timezone Europe/Stockholm (UTC+2.0)
Stats Elevation 236 ft / 72 m (AMSL)
Location 55.528883° 13.371109°
Runways 2
Magnetic Variation 4.027° E

METAR

ESMS 211520Z 09018KT CAVOK 19/02 Q1023

Decode

TAF

TAF ESMS 211059Z 2112/2212 10010KT CAVOK

Decode

Destination Runways

ID Width Length Bearing (true) Bearing (mag) Surface Threshold Offset Overrun Length
11 59 ft / 18 m 2,609 ft / 795 m 105.31° 101.28° Asphalt 0 ft / 0 m 0 ft / 0 m
17 148 ft / 45 m 9,176 ft / 2,797 m 173.36° 169.33° Asphalt 0 ft / 0 m 98 ft / 30 m
29 59 ft / 18 m 2,609 ft / 795 m 285.32° 281.29° Asphalt 0 ft / 0 m 0 ft / 0 m
35 148 ft / 45 m 9,176 ft / 2,797 m 353.37° 349.34° Asphalt 0 ft / 0 m 98 ft / 30 m

Approach Navaids

Runway Type Ident Frequency Range Bearing (true) Bearing (mag) Slope Elevation
17 Localiser NMS 111.90 MHz 18 nm / 33 km 173.37° 169.34° - 236 ft / 72 m (AMSL)
17 Glidescope NMS 111.90 MHz 10 nm / 19 km 173.37° 169.34° 3.00° 236 ft / 72 m (AMSL)
35 Localiser SMS 108.10 MHz 18 nm / 33 km 353.36° 349.33° - 236 ft / 72 m (AMSL)
35 Glidescope SMS 108.10 MHz 10 nm / 19 km 353.37° 349.34° 3.00° 236 ft / 72 m (AMSL)